Regional Weather Roundup
Issued by NWS Newport/Morehead, NC

Current Version | Previous Version | Graphics & Text | Print | Product List | Glossary On
Versions: 1 2 3 4 5 6 7 8 9 10 11 12 13 14 15 16 17 18 19 20 21 22 23 24 25 26 27 28 29 30 31 32 33 34 35 36 37 38 39 40 41 42 43 44 45 46 47 48 49 50
000 ASUS42 KMHX 051725 RWRMHX WEATHER ROUNDUP FOR EASTERN NORTH CAROLINA NATIONAL WEATHER SERVICE NEWPORT/MOREHEAD CITY NC 100 PM EDT SUN JUL 05 2015 NOTE: "FAIR" INDICATES FEW OR NO CLOUDS BELOW 12,000 FEET WITH NO SIGNIFICANT WEATHER AND/OR OBSTRUCTIONS TO VISIBILITY NCZ015>017-031-032-045>047-102-103-051800- NORTH COAST CITY SKY/WX TMP DP RH WIND PRES REMARKS EDENTON N/A 85 74 69 S6 30.13F ELIZABETH CITY MOSUNNY 82 74 76 SE9 30.13S KITTY HAWK MOSUNNY 87 71 58 W6 30.13S MANTEO PTSUNNY 83 73 72 CALM 30.14S $$ NCZ045>047-081-094-103-104-051800- CENTRAL COAST CITY SKY/WX TMP DP RH WIND PRES REMARKS FRISCO MOSUNNY 82 73 74 SW12 30.16S SWANQUARTER N/A 88 N/A N/A S7 30.09S $$ NCZ095-097-098-100-101-051800- SOUTHERN COAST CITY SKY/WX TMP DP RH WIND PRES REMARKS BEAUFORT PTSUNNY 84 75 74 SW14 30.15S CEDAR ISLAND N/A 90 N/A N/A SW5G13 30.18S JACKSONVILLE SUNNY 88 69 53 VRB7 30.13F PINEY ISLAND MOSUNNY N/A N/A N/A SW9 30.14S WILMINGTON SUNNY 89 69 51 VRB6 30.13F $$ NCZ011>013-027>030-043-044-078>080-089-090>093-098-051800- COASTAL PLAIN CITY SKY/WX TMP DP RH WIND PRES REMARKS AHOSKIE MOSUNNY N/A N/A N/A CALM 30.12S CLINTON SUNNY 88 72 60 SW5 30.13S ELIZABETHTOWN SUNNY 87 70 56 S5 30.13F GOLDSBORO MOSUNNY 88 72 59 VRB7 30.10S GREENVILLE SUNNY 88 72 58 CALM 30.14S HAVELOCK MOSUNNY 89 69 51 SW9 30.14F KENANSVILLE MOSUNNY 86 69 56 CALM 30.13F KINSTON SUNNY 88 70 55 S8 30.13F NEW BERN MOSUNNY 89 71 55 S9 30.14F RICHLANDS SUNNY 91 70 49 S6 30.13S ROCKY MOUNT PTSUNNY 89 71 55 SW6 30.12R WASHINGTON MOSUNNY 87 72 62 S7 30.13F WHITEVILLE SUNNY 87 70 58 S6 30.13S $$ AMZ130-135-150-152-154-156-158-170-250-252-270-ANZ085-086-088-633-658-670-051800- MARINE OBSERVATIONS STATION/POSITION TIME TEMP WIND PRES WAVE SWELL AIR SEA DIR/SP/G HT/PER HT/PER (UTC) (F) (DEG/KT/KT) (MB) (FT/S) (FT/S) CHESAPEAKE LIGHT 1700 76 90/ 11/ 12 1021.3 64 E VA BEACH 1650 76 78 60/ 6/ 6 1020.5 4/ 6 3/ 6 DUCK 1700 81 77 80/ 4/ 5 N/A 2 E DUCK 1611 80 N/A 2/14 OREGON INLET 1700 84 80 190/ 1/ 1 1020.6 13E OREGON INLT 1700 79 N/A 3/ 6 HATTERAS CG 1700 82 79 210/ 10/ 14 1020.8 DIAMOND BUOY 1650 80 81 230/ 14/ 16 1020.8 3/ 5 2/ 9 CAPE LOOKOUT 1700 82 220/ 9/ 12 1020.8 BEAUFORT LAB 1700 82 80 220/ 9/ 13 1020.4 30 SE NEW RVR IN NOT AVBL 27 SE WRIGHTSVLE 1700 80 230/ 8/ 10 N/A 5 SE WRIGHTSVLE 1608 80 79 200/ 12/ 14 1020.9 225 S CAPE HAT 1650 79 80 210/ 12/ 14 1024.2 4/ 9 3/ 9 41 SE CHARLESTON 1650 81 82 230/ 10/ 12 1021.2 3/ 9 2/ 9 $$

USA.gov is the U.S. government's official web portal to all federal, state and local government web resources and services.